Location: Hurstbourne Priors
(51.2000°N, 1.3667°W)
Time: 01:04:41
(UTC+00:00)

Cosmos 1727 Rocket - Pass Details

Date: 09 April 2020
Orbit: 960 x 997 km, 82.9° (Epoch: 03 June)

Event Time Altitude Azimuth Distance (km) Brightness Sun altitude
Exits shadow 23:50:34 55° 273° (W) 1,182 4.3 -30.7°
Maximum altitude 23:50:54 55° 286° (WNW) 1,175 4.4 -30.7°
Drops below altitude 10° 23:57:09 10° 4° (N) 2,772 7.3 -30.7°
Sets 23:59:46 0° 9° (N) 3,728 8.2 -30.7°
